Regional Weather Roundup
Issued by NWS

Home | Current Version | Previous Version | Text Only | Print | Product List | Glossary On
Versions: 1 2 3 4 5 6 7 8 9 10 11 12 13 14 15 16 17 18 19 20 21 22 23 24 25 26 27 28 29 30 31 32 33 34 35 36 37 38 39 40 41 42 43 44 45 46 47 48 49 50
749
ASUS44 KLIX 210912
RWRLA
LOUISIANA WEATHER ROUNDUP
NATIONAL WEATHER SERVICE NEW ORLEANS LA
300 AM CST TUE NOV 21 2017

NOTE: "FAIR" INDICATES FEW OR NO CLOUDS BELOW 12,000 FEET WITH NO
      SIGNIFICANT WEATHER AND/OR OBSTRUCTIONS TO VISIBILITY.
      SKY/WX - SKY CONDITION AND SIGNIFICANT WEATHER.
      TMP - AIR TEMPERATURE.    DP   - DEWPOINT TEMPERATURE.
      RH  - RELATIVE HUMIDITY.  PRES - PRESSURE.
      HX  - HEAT INDEX.         WCI  - WIND CHILL INDEX.

*  THESE STATIONS ARE NOT NWS OR FAA STATIONS AND ARE NOT UNDER
   NWS QUALITY CONTROL.

LAZ040-048-061>063-065-066-069-211000-
SOUTHEAST LOUISIANA

CITY           SKY/WX    TMP DP  RH WIND       PRES   REMARKS
N.O. INTL ARPT CLOUDY    56  52  86 CALM      30.05S
N.O. LAKEFRONT MOCLDY    57  49  74 E12       30.05F
N.O. DOWNTOWN* FAIR      56  48  74 NE6       30.05F
RESERVE*       FAIR      52  49  89 CALM      30.05S
SLIDELL        PTCLDY    47  42  83 CALM      30.06S
BATON ROUGE    PTCLDY    43  41  93 CALM      30.05F
BOOTHVILLE     CLOUDY    63  58  83 CALM      30.03S
BELLE CHASSE   CLOUDY    51  51 100 NE5       30.04F
BOGALUSA*      NOT AVBL
GALLIANO*      CLOUDY    56  51  82 NE5       30.04F
NEW ROADS*     FAIR      41  40  97 CALM      30.04F
GONZALES*      FAIR      48  46  93 CALM      30.04F
HAMMOND*       MOCLDY    43  43 100 CALM      30.05F
HOUMA*         CLOUDY    52  50  93 CALM      30.05S
PORT FOURCHON* NOT AVBL

$$

LAZ041-044-053-054-211000-
SOUTHWEST LOUISIANA

CITY           SKY/WX    TMP DP  RH WIND       PRES   REMARKS
LAKE CHARLES   PTCLDY    48  43  82 E6        30.00F
LAFAYETTE      CLOUDY    47  45  93 CALM      30.03F
PATTERSON      CLOUDY    50  49  96 NE3       30.05F
SALT POINT       N/A      1 N/A N/A CALM      30.03F
NEW IBERIA     PTCLDY    48  43  82 CALM      30.04F
CHENAULT AIRPK CLEAR     44  41  90 CALM      30.00F

$$

LAZ027-028-211000-
CENTRAL LOUISIANA

CITY           SKY/WX    TMP DP  RH WIND       PRES   REMARKS
FORT POLK      CLEAR     42  35  76 CALM      29.99F
ALEXANDRIA INT CLEAR     37  35  92 SE5       30.01F WCI  33
ALEXANDRIA     CLEAR     32  32 100 CALM      30.02F

$$

LAZ001-002-211000-
NORTHWEST LOUISIANA

CITY           SKY/WX    TMP DP  RH WIND       PRES   REMARKS
SHREVEPORT     CLEAR     41  38  89 SE3       29.97F
BARKSDALE AFB  CLEAR     37  34  87 S7        29.97F WCI  32
DTN SHREVEPORT CLEAR     45  38  76 SE7       29.97F

$$

LAZ014-016-211000-
NORTHEAST LOUISIANA

CITY           SKY/WX    TMP DP  RH WIND       PRES   REMARKS
MONROE         CLEAR     33  30  88 CALM      30.02F
TALLULAH       CLEAR     33  33 100 CALM      30.05F

$$





USA.gov is the U.S. government's official web portal to all federal, state and local government web resources and services.